TimeAKDT,TemperatureF,Dew PointF,Humidity,Sea Level PressureIn,VisibilityMPH,Wind Direction,Wind SpeedMPH,Gust SpeedMPH,PrecipitationIn,Events,Conditions,WindDirDegrees,DateUTC
12:53 AM,39.9,30.9,70,30.17,10.0,Calm,Calm,-,N/A,,Clear,0,2013-05-08 08:53:00
1:53 AM,39.0,30.9,73,30.16,10.0,Calm,Calm,-,N/A,,Clear,0,2013-05-08 09:53:00
2:53 AM,37.9,30.0,73,30.16,10.0,Calm,Calm,-,N/A,,Clear,0,2013-05-08 10:53:00
3:53 AM,37.0,30.0,76,30.16,10.0,Calm,Calm,-,N/A,,Clear,0,2013-05-08 11:53:00
4:53 AM,36.0,28.9,76,30.16,10.0,Calm,Calm,-,N/A,,Clear,0,2013-05-08 12:53:00
5:53 AM,36.0,30.0,79,30.16,10.0,Calm,Calm,-,N/A,,Clear,0,2013-05-08 13:53:00
6:53 AM,37.9,30.9,76,30.16,10.0,Calm,Calm,-,N/A,,Clear,0,2013-05-08 14:53:00
7:53 AM,42.1,32.0,67,30.16,10.0,Calm,Calm,-,N/A,,Clear,0,2013-05-08 15:53:00
8:53 AM,46.0,35.1,66,30.14,10.0,Calm,Calm,-,N/A,,Clear,0,2013-05-08 16:53:00
9:53 AM,57.0,23.0,27,30.12,-9999.0,NE,12.7,19.6,N/A,,Clear,40,2013-05-08 17:53:00
10:53 AM,60.1,21.9,23,30.11,-9999.0,NE,15.0,-,0.00,,Clear,50,2013-05-08 18:53:00
11:53 AM,61.0,21.9,22,30.11,-9999.0,NE,15.0,-,N/A,,Clear,50,2013-05-08 19:53:00
12:53 PM,62.1,23.0,22,30.11,-9999.0,NE,8.1,-,N/A,,Clear,40,2013-05-08 20:53:00
1:53 PM,54.0,32.0,43,30.11,-9999.0,SSW,10.4,-,N/A,,Clear,210,2013-05-08 21:53:00
2:53 PM,57.0,28.9,34,30.11,-9999.0,SSW,18.4,-,N/A,,Clear,210,2013-05-08 22:53:00
3:53 PM,57.0,30.9,37,30.11,-9999.0,SSW,18.4,-,N/A,,Clear,210,2013-05-08 23:53:00
4:53 PM,55.0,35.1,47,30.12,-9999.0,SSW,17.3,-,N/A,,Clear,210,2013-05-09 00:53:00
5:53 PM,51.1,39.0,63,30.13,-9999.0,SW,15.0,-,N/A,,Clear,220,2013-05-09 01:53:00
6:53 PM,53.1,35.1,50,30.13,-9999.0,SW,17.3,-,N/A,,Clear,220,2013-05-09 02:53:00
7:53 PM,52.0,35.1,53,30.15,-9999.0,SSW,16.1,-,N/A,,Clear,210,2013-05-09 03:53:00
8:53 PM,51.1,33.1,50,30.19,-9999.0,Calm,Calm,-,N/A,,Clear,0,2013-05-09 04:53:00
9:53 PM,48.0,32.0,54,30.22,-9999.0,Calm,Calm,-,N/A,,Clear,0,2013-05-09 05:53:00
10:53 PM,44.1,32.0,63,30.24,-9999.0,Calm,Calm,-,N/A,,Clear,0,2013-05-09 06:53:00
11:53 PM,42.1,30.9,65,30.25,-9999.0,Calm,Calm,-,N/A,,Clear,0,2013-05-09 07:53:00